IZ2OSD Weather Reports


time (UTC)temp
F
wind
direction
speed
knots
gust
knots
rain 1hr
in
rain 24hr
in
rain mn
in
humidity
%
barometer
mb
20260905185819 83 0.0 0.0 0.00 0.00 0.00 59 1017.0
20260905184816 84 0.0 0.0 0.00 0.00 0.00 58 1016.6
20260905183812 84 0.0 0.0 0.00 0.00 0.00 57 1016.2
20260905182808 85 0.0 0.0 0.00 0.00 0.00 56 1016.2
20260905181331 85 0.0 0.0 0.00 0.00 0.00 56 1016.2
20260905180327 86 0.0 0.0 0.00 0.00 0.00 55 1016.2
20260905175324 86 0.0 0.0 0.00 0.00 0.00 54 1016.1
20260905174341 87 0.0 0.0 0.00 0.00 0.00 53 1015.9
20260905172328 87 0.0 0.0 0.00 0.00 0.00 53 1015.9
20260905171324 87 0.0 0.0 0.00 0.00 0.00 53 1015.8
20260905170321 88 0.0 0.9 0.00 0.00 0.00 52 1016.0
20260905164857 89 315 0.0 0.9 0.00 0.00 0.00 52 1015.8
20260905160124 90 0.0 0.0 0.00 0.00 0.00 47 1015.8
20260905155121 90 0.0 0.0 0.00 0.00 0.00 49 1015.8
20260905153657 90 315 0.9 2.6 0.00 0.00 0.00 49 1015.5
20260905151724 91 0.0 0.0 0.00 0.00 0.00 47 1015.7
20260905150744 91 315 1.7 3.5 0.00 0.00 0.00 47 1015.6
20260905145718 91 337 1.7 3.5 0.00 0.00 0.00 46 1015.8
20260905144734 91 315 0.9 2.6 0.00 0.00 0.00 46 1015.4
20260905143710 92 315 0.9 1.7 0.00 0.00 0.00 46 1015.6
20260905142701 93 0.0 0.0 0.00 0.00 0.00 45 1015.7
20260905141658 92 225 0.0 1.7 0.00 0.00 0.00 46 1016.1
20260905135907 92 337 0.9 1.7 0.00 0.00 0.00 46 1016.0
20260905134902 92 315 0.0 0.9 0.00 0.00 0.00 46 1015.9
20260905133859 92 315 0.0 1.7 0.00 0.00 0.00 47 1016.0
20260905132856 92 315 0.9 1.7 0.00 0.00 0.00 46 1016.0
20260905130903 92 90 0.0 0.9 0.00 0.00 0.00 45 1016.4
20260905125900 92 315 0.9 2.6 0.00 0.00 0.00 45 1016.4
20260905124857 92 292 0.9 2.6 0.00 0.00 0.00 46 1016.7
20260905123522 91 315 0.0 1.7 0.00 0.00 0.00 47 1016.7
20260905122512 91 337 0.9 3.5 0.00 0.00 0.00 47 1016.5
20260905121508 91 0.0 0.0 0.00 0.00 0.00 47 1016.4
20260905120523 91 315 0.9 2.6 0.00 0.00 0.00 46 1016.6
20260905115502 91 315 0.9 1.7 0.00 0.00 0.00 47 1016.9
20260905114457 91 315 0.9 1.7 0.00 0.00 0.00 47 1016.9
20260905113109 89 315 2.6 2.6 0.00 0.00 0.00 48 1016.9
20260905112105 91 0.0 0.0 0.00 0.00 0.00 46 1016.8
20260905111100 89 315 0.0 0.9 0.00 0.00 0.00 49 1016.8
20260905110059 89 292 0.9 1.7 0.00 0.00 0.00 49 1017.0
20260905104816 90 315 1.7 2.6 0.00 0.00 0.00 47 1016.9
20260905103813 89 315 0.9 1.7 0.00 0.00 0.00 48 1017.1
20260905102829 89 315 0.9 1.7 0.00 0.00 0.00 49 1016.8
20260905100728 88 315 0.9 2.6 0.00 0.00 0.00 52 1016.7
20260905095725 88 0.0 0.0 0.00 0.00 0.00 52 1017.0
20260905094721 88 157 0.9 1.7 0.00 0.00 0.00 53 1017.3
20260905093223 86 292 0.0 0.9 0.00 0.00 0.00 54 1017.0
20260905092241 86 0.0 0.0 0.00 0.00 0.00 55 1017.0
20260905091217 86 292 0.9 1.7 0.00 0.00 0.00 53 1017.3
20260905090212 85 292 0.0 0.9 0.00 0.00 0.00 55 1016.9
20260905085230 84 0.0 0.0 0.00 0.00 0.00 58 1017.1
20260905083225 81 0.0 0.0 0.00 0.00 0.00 62 1016.6
20260905082221 82 0.0 0.0 0.00 0.00 0.00 59 1016.8
20260905081218 82 0.0 0.9 0.00 0.00 0.00 58 1016.7
20260905080212 82 0.0 0.9 0.00 0.00 0.00 59 1016.6
20260905075209 81 0.0 0.0 0.00 0.00 0.00 61 1016.5
20260905073725 82 292 0.9 0.9 0.00 0.00 0.00 58 1016.6
20260905072722 82 0.0 0.9 0.00 0.00 0.00 59 1016.3
20260905071718 79 0.0 0.0 0.00 0.00 0.00 63 1016.4
20260905070714 77 0.0 0.0 0.00 0.00 0.00 64 1016.3
20260905065731 77 292 0.0 0.9 0.00 0.00 0.00 64 1016.5
20260905064708 79 292 0.0 0.9 0.00 0.00 0.00 62 1016.3
20260905063703 76 292 0.9 1.7 0.00 0.00 0.00 68 1016.3
20260905062700 75 0.0 0.0 0.00 0.00 0.00 69 1016.3
20260905061656 76 0.0 0.0 0.00 0.00 0.00 68 1016.4
20260905060348 75 0.0 0.0 0.00 0.00 0.00 70 1016.3
20260905055345 76 0.0 0.9 0.00 0.00 0.00 68 1016.2
20260905054340 73 0.0 0.0 0.00 0.00 0.00 71 1016.1
20260905053340 70 0.0 0.0 0.00 0.00 0.00 76 1016.1
20260905052336 70 0.0 0.0 0.00 0.00 0.00 76 1016.0
20260905051335 70 0.0 0.0 0.00 0.00 0.00 75 1015.9
20260905050325 70 0.0 0.0 0.00 0.00 0.00 74 1015.8
20260905045323 70 0.0 0.0 0.00 0.00 0.00 74 1015.7
20260905044320 70 0.0 0.0 0.00 0.00 0.00 74 1015.5
20260905042322 71 0.0 0.0 0.00 0.00 0.00 73 1015.2
20260905041320 71 0.0 0.0 0.00 0.00 0.00 72 1015.4
20260905040315 70 0.0 0.0 0.00 0.00 0.00 72 1015.5
20260905035331 71 0.0 0.0 0.00 0.00 0.00 72 1015.7
20260905034303 71 0.0 0.0 0.00 0.00 0.00 71 1015.6
20260905033258 71 0.0 0.0 0.00 0.00 0.00 72 1015.7
20260905032248 71 0.0 0.0 0.00 0.00 0.00 70 1016.0
20260905031244 71 0.0 0.0 0.00 0.00 0.00 70 1016.2
20260905030321 71 0.0 0.9 0.00 0.00 0.00 70 1015.9
20260905025237 70 315 1.7 2.6 0.00 0.00 0.00 69 1015.7
20260905024233 71 0 0.0 0.9 0.00 0.00 0.00 66 1015.7
20260905023223 71 0.0 0.0 0.00 0.00 0.00 65 1015.8
20260905022222 71 0.0 0.0 0.00 0.00 0.00 65 1015.9
20260905020322 71 0.0 0.0 0.00 0.00 0.00 64 1016.0
20260905014918 71 0.0 0.0 0.00 0.00 0.00 62 1016.2
20260905013101 72 0.0 0.0 0.00 0.00 0.00 58 1016.1
20260905012057 72 0.0 0.0 0.00 0.00 0.00 57 1016.1
20260905005257 73 0.0 0.0 0.00 0.00 0.00 58 1016.4
20260905002831 74 0.0 0.0 0.00 0.00 0.00 57 1016.5
20260905001325 74 0.0 0.0 0.00 0.00 0.00 58 1016.5
20260905000321 75 0.0 0.0 0.00 0.00 0.00 58 1016.6
20260904234057 76 0.0 0.0 0.00 0.00 0.00 53 1016.8
20260904232242 76 0.0 0.0 0.00 0.00 0.00 53 1016.7
20260904224544 77 0.0 0.0 0.00 0.00 0.00 51 1016.7
20260904223121 77 0.0 0.0 0.00 0.00 0.00 51 1016.8
20260904221657 78 0.0 0.0 0.00 0.00 0.00 50 1016.9
20260904220158 78 0.0 0.0 0.00 0.00 0.00 48 1016.7
20260904215152 78 0.0 0.0 0.00 0.00 0.00 47 1016.8
20260904212724 79 0.0 0.0 0.00 0.00 0.00 45 1017.0
20260904211657 79 0.0 0.0 0.00 0.00 0.00 45 1017.0
20260904205718 80 0.0 0.0 0.00 0.00 0.00 43 1017.2
20260904203713 80 0.0 0.0 0.00 0.00 0.00 43 1017.4
20260904202729 81 0.0 0.0 0.00 0.00 0.00 42 1017.2
20260904201658 81 292 0.0 0.9 0.00 0.00 0.00 41 1017.3
20260904200329 82 315 0.9 1.7 0.00 0.00 0.00 40 1017.0
20260904195325 82 0.0 0.9 0.00 0.00 0.00 40 1017.1
20260904194322 82 315 0.0 0.9 0.00 0.00 0.00 40 1017.1
20260904192328 83 0.0 0.0 0.00 0.00 0.00 41 1017.0
20260904191326 84 0.0 0.0 0.00 0.00 0.00 40 1017.1
20260904190322 84 315 0.9 2.6 0.00 0.00 0.00 41 1017.0